This is the latest recevied weather packets stored in our database for station/object KE0YJJ-14. If no packets are shown the sender has not sent any weather packets the latest 10 day(s).
| Time | Temp. | Humidity | Pressure | Rain* | Wind** | Luminosity | Snow |
|---|---|---|---|---|---|---|---|
| 1777926246 | 16.67° C | 30% | - | 0 mm | - | - | - |
| 1777925943 | 16.67° C | 31% | - | 0 mm | - | - | - |
| 1777925640 | 16.67° C | 31% | - | 0 mm | - | - | - |
| 1777925337 | 17.78° C | 30% | - | 0 mm | - | - | - |
| 1777925034 | 17.78° C | 29% | - | 0 mm | - | - | - |
| 1777924731 | 17.78° C | 30% | - | 0 mm | - | - | - |
| 1777924426 | 16.67° C | 30% | - | 0 mm | - | - | - |
| 1777924123 | 17.78° C | 30% | - | 0 mm | - | - | - |
| 1777923819 | 17.78° C | 25% | - | 0 mm | - | - | - |
| 1777923515 | 17.78° C | 27% | - | 0 mm | - | - | - |
| 1777923212 | 17.78° C | 28% | - | 0 mm | - | - | - |
| 1777922911 | 17.78° C | 28% | - | 0 mm | - | - | - |
| 1777922609 | 17.78° C | 29% | - | 0 mm | - | - | - |
| 1777922307 | 17.78° C | 30% | - | 0 mm | - | - | - |
| 1777922004 | 18.89° C | 27% | - | 0 mm | - | - | - |
| 1777921699 | 17.78° C | 29% | - | 0 mm | - | - | - |
| 1777921396 | 17.78° C | 31% | - | 0 mm | - | - | - |
| 1777921092 | 17.78° C | 28% | - | 0 mm | - | - | - |
| 1777920790 | 18.33° C | 30% | - | 0 mm | - | - | - |
| 1777920486 | 17.78° C | 31% | - | 0 mm | - | - | - |
| 1777920181 | 17.78° C | 31% | - | 0 mm | - | - | - |
| 1777919877 | 18.33° C | 33% | - | 0 mm | - | - | - |
| 1777919574 | 17.22° C | 35% | - | 0 mm | - | - | - |
| 1777919273 | 17.22° C | 34% | - | 0 mm | - | - | - |
| 1777918969 | 17.78° C | 34% | - | 0 mm | - | - | - |
* Rain latest hour (hover to see other rain measurements)
** Current wind speed in m/s (hover to see current wind gust speed)